Bowesville, Ontario

9:52 PM EDT on April 30, 2017 (GMT -0400)
Sinclair Weather - CFB Uplands | | Change Station
Active Advisory: Special Weather Statement

Elev 341 ft 45.34 °N, 75.67 °W | Updated 1 minute ago

Overcast
Overcast
39.8 °F
Feels Like 36 °F
N
6.0
Wind Variable Wind from ENE
Gusts 17.0 mph

Today
High -- | Low -- °F
--% Chance of Precip.
Yesterday
High -- | Low -- °F
Precip. -- in
Pressure 30.14 in
Visibility 8.0 miles
Clouds Mostly Cloudy 4900 ft
Mostly Cloudy 7000 ft
Overcast 10000 ft
Windchill 36 °F
Dew Point 38 °F
Humidity 95%
Rainfall 0.13 in
Snow Depth Not available.
5:52 AM 8:08 PM
Waxing Crescent, 28% visible
METAR CYND 010100Z 08011G16KT 8SM -RA BKN049 BKN070 OVC100 04/03 A3013 RMK SC5AC1AC2 LAST STFD OBS/NEXT 011100 UTC SLP206
Pressure 30.14 in
Visibility 8.0 miles
Clouds Mostly Cloudy 4900 ft
Mostly Cloudy 7000 ft
Overcast 10000 ft
Windchill 36 °F
Dew Point 38 °F
Humidity 95%
Rainfall 0.13 in
Snow Depth Not available.
5:52 AM 8:08 PM
Waxing Crescent, 28% visible
METAR CYND 010100Z 08011G16KT 8SM -RA BKN049 BKN070 OVC100 04/03 A3013 RMK SC5AC1AC2 LAST STFD OBS/NEXT 011100 UTC SLP206

Get Severe Weather Alerts

Thanks for signing up!

Be on the lookout for a verification email in your inbox.

You'll start receiving the daily forecast at 8 AM.

×

10-Day Weather Forecast

Almanac

Astronomy

Apr. 30, 2017 Rise Set
Actual Time
Civil Twilight
Nautical Twilight
Astronomical Twilight
Moon
Length of Visible Light
Length of Day
Tomorrow will be .
, % of the Moon is Illuminated

Today's Extremes

Country Highs Country Lows

Community

WunderPhotos

WunderBlog® & News

Nearby

Air Quality

  Air Quality AQ Index Pollutant
Not available.

Snow Depth

Station Depth Elevation

Earthquake Activity

City Distance Mag. Time & Date
Minimum magnitude displayed is 2.5.

Coastal Water Temperatures

Place Temperature

Stations

Nearby Weather Stations

Station Location Temp. Windchill Dew Point Humidity Wind Precip. Elev Updated Type
                   

Watches & Warnings

Special Weather Statement
Issued: Environment Canada
Special Weather Statement issued by Environment.  01:32 PM EDT Sunday 30 April 2017.
Significant rain expected through Monday.

An intensifying low pressure system over Missouri will continue to provide several rounds of rain to southern portions of the province tonight and Monday. A few embedded heavier thunderstorms are also expected in some areas. Total general rainfall amounts of 20 to 40 millimetres are anticipated through Monday before it tapers off. But some areas which receive more persistent thunderstorms are likely to be impacted by 50 mm.

###

Please continue to monitor alerts and forecasts issued by Environment Canada. To report severe weather, send an email to ec.cpio-tempetes-ospc-storms.ec@canada.ca or tweet reports using #ONStorm.
expires_epoch:1493616688